Regional Weather Roundup
Issued by NWS

Home | Current Version | Previous Version | Graphics & Text | Print | Product List | Glossary On
Versions: 1 2 3 4 5 6 7 8 9 10 11 12 13 14 15 16 17 18 19 20 21 22 23 24 25 26 27 28 29 30 31 32 33 34 35 36 37 38 39 40 41 42 43 44 45 46 47 48 49 50
000
ASUS43 KFSD 231210
RWRSD

WEATHER ROUNDUP FOR SOUTH DAKOTA
NATIONAL WEATHER SERVICE SIOUX FALLS SD
700 AM CDT THU OCT 23 2014

NOTE: "FAIR" INDICATES FEW OR NO CLOUDS BELOW 12,000 FEET WITH NO
SIGNIFICANT WEATHER AND/OR OBSTRUCTIONS TO VISIBILITY.


SDZ001>005-009-010-012>017-231300-
NORTHWEST AND NORTH CENTRAL SOUTH DAKOTA

CITY           SKY/WX    TMP DP  RH WIND       PRES   REMARKS
BUFFALO          N/A     41  27  57 W10       29.87S
FAITH            N/A     43  31  62 S13       29.94F
MOBRIDGE       CLEAR     41  33  73 SE5       29.93F
$$

SDZ012>016-024>037-041>051-057-063-072>074-231300-
SOUTHWEST AND SOUTH CENTRAL SOUTH DAKOTA

CITY           SKY/WX    TMP DP  RH WIND       PRES   REMARKS
RAPID CTY ARPT CLEAR     38  25  59 NW9       29.98S
PIERRE         CLEAR     37  33  85 CALM      29.96S
CUSTER         CLEAR     39  18  42 W6        30.05R
ELLSWORTH AFB  CLEAR     38  26  60 W5        29.97F
PHILIP         CLEAR     33  29  85 CALM      29.98S
PINE RIDGE     CLEAR     27  24  89 CALM      30.03S
SPEARFISH      FAIR      45  19  36 CALM      29.99S
WINNER         FAIR      50  43  77 SW8       29.99F
$$

SDZ004>011-016>023-039-040-231300-
NORTHEAST SOUTH DAKOTA

CITY           SKY/WX    TMP DP  RH WIND       PRES   REMARKS
ABERDEEN       CLEAR     33  32  96 S5        29.97R WCI  29
WATERTOWN      FOG       38  38 100 S7        29.98R VSB 1/2
SISSETON         N/A     47  41  80 W9        29.93R
$$

SDZ017-020-022-023-036>040-048>070-231300-
SOUTHEAST SOUTH DAKOTA

CITY           SKY/WX    TMP DP  RH WIND       PRES   REMARKS
SIOUX FALLS    FOG       44  44 100 CALM      30.02R VSB 1/8
HURON          CLEAR     35  34  96 E5        29.98S
CHAMBERLAIN    CLEAR     35  35  96 SW3       29.99F
MITCHELL       CLEAR     43  41  93 S3        30.00S
YANKTON          N/A     43  41  93 CALM      30.03S VSB<1/4
$$

ABBREVIATIONS USED IN REMARKS
   TC - TEMPERATURE IN CELSIUS
  WCI - WIND CHILL INDEX
   HX - HEAT INDEX
  VSB - VISIBILITY




USA.gov is the U.S. government's official web portal to all federal, state and local government web resources and services.